This demonstration page uses our WeatherBlox Daily Observations layout. Learn more.

Left ArrowRight Arrow

Hourly Observations for April 6, 2018

Temp ( °F °C ) Dew Point ( °F °C ) Humidity (%) Winds ( mph kmh ) Pressure ( in mb ) Visibility ( mi km ) Precip ( " mm )
12:59 am 00:59 Clear 44 6.7 37 2.8 76 76 S 8 13 30.17 1022 10 16 0.00 0.00
1:59 am 01:59 Clear 45 7.2 38 3.3 77 77 S 9 15 30.16 1021 10 16 0.00 0.00
2:59 am 02:59 Clear 45 7.2 39 3.9 80 80 S 8 13 30.14 1021 10 16 0.00 0.00
3:59 am 03:59 Clear 46 7.8 39 3.9 77 77 SSW 9 15 30.14 1021 10 16 0.00 0.00
4:59 am 04:59 Clear 46 7.8 39 3.9 77 77 S 9 15 30.13 1020 10 16 0.00 0.00
5:59 am 05:59 Clear 47 8.3 40 4.4 77 77 S 12 19 30.11 1020 10 16 0.00 0.00
6:59 am 06:59 Partly Cloudy 47 8.3 38 3.3 71 71 S 6 9 30.11 1020 10 16 0.00 0.00
7:59 am 07:59 Partly Cloudy 51 10.6 37 2.8 59 59 S 12 19 30.11 1020 10 16 0.00 0.00
8:59 am 08:59 Mostly Cloudy 55 12.8 37 2.8 51 51 SSW 14 22 30.10 1019 10 16 0.00 0.00
9:59 am 09:59 Partly Cloudy 60 15.6 38 3.3 44 44 S 14 22 30.08 1019 10 16 0.00 0.00
10:59 am 10:59 Partly Cloudy 66 18.9 35 1.7 32 32 SSW 15 24 30.06 1018 10 16 0.00 0.00
11:59 am 11:59 Partly Cloudy 68 20 33 0.6 27 27 SSW 17 28 30.04 1017 10 16 0.00 0.00
12:59 pm 12:59 Partly Cloudy 69 20.6 33 0.6 26 26 SW 16 26 30.00 1016 10 16 0.00 0.00
1:59 pm 13:59 Mostly Cloudy 71 21.7 33 0.6 25 25 SW 16 26 29.95 1014 10 16 0.00 0.00
2:59 pm 14:59 Mostly Cloudy 71 21.7 32 0 24 24 SSW 15 24 29.92 1013 10 16 0.00 0.00
3:59 pm 15:59 Mostly Cloudy 72 22.2 31 -0.6 22 22 SW 15 24 29.88 1012 10 16 0.00 0.00
4:59 pm 16:59 Mostly Cloudy 72 22.2 30 -1.1 21 21 SSW 13 20 29.85 1011 10 16 0.00 0.00
5:59 pm 17:59 Mostly Cloudy 71 21.7 31 -0.6 23 23 SW 16 26 29.85 1011 10 16 0.00 0.00
6:59 pm 18:59 Mostly Cloudy 70 21.1 32 0 25 25 SW 18 30 29.84 1011 10 16 0.00 0.00
7:59 pm 19:59 Mostly Cloudy 68 20 32 0 26 26 SSW 13 20 29.83 1010 10 16 0.00 0.00
8:59 pm 20:59 Mostly Cloudy 67 19.4 35 1.7 31 31 S 13 20 29.83 1010 10 16 0.00 0.00
9:59 pm 21:59 Partly Cloudy 65 18.3 44 6.7 47 47 S 13 20 29.83 1010 10 16 0.00 0.00
10:59 pm 22:59 Mostly Clear 64 17.8 47 8.3 54 54 SSW 14 22 29.83 1010 10 16 0.00 0.00
11:59 pm 23:59 Mostly Cloudy 63 17.2 46 7.8 54 54 SSW 14 22 29.82 1010 10 16 0.00 0.00

Powered by AerisWeather